Regional Weather Roundup
Issued by NWS Glasgow, MT

Home | Current Version | Previous Version | Text Only | Print | Product List | Glossary On
Versions: 1 2 3 4 5 6 7 8 9 10 11 12 13 14 15 16 17 18 19 20 21 22 23 24 25 26 27 28 29 30 31 32 33 34 35 36 37 38 39 40 41 42 43 44 45 46 47 48 49 50
000
ASUS45 KGGW 291415
RWRGGW
HOURLY REGIONAL WEATHER ROUNDUP FOR NORTHEAST MONTANA
NATIONAL WEATHER SERVICE GLASGOW MONTANA
800 AM MDT WED JUL 29 2015

NOTE: "FAIR" INDICATES FEW OR NO CLOUDS BELOW 12,000 FEET WITH NO
SIGNIFICANT WEATHER AND/OR OBSTRUCTIONS TO VISISBILITY.

NORTHEAST MONTANA


CITY           SKY/WX    TMP DP  RH WIND       PRES   REMARKS
GLASGOW        SUNNY     57  48  72 W5        30.11R
PLENTYWOOD       N/A     61  50  67 NW9         N/A
WOLF POINT     PTSUNNY   58  50  75 SW13      30.10R
JORDAN           N/A     59  46  62 W5        30.16R
WINNETT          N/A     66  40  38 W7          N/A
SIDNEY         PTSUNNY   64  48  55 W14       30.07R
GLENDIVE       PTSUNNY   64  46  52 W13       30.13S
MALTA            N/A     58  49  72 W7          N/A
SCOBEY           N/A     59  48  67 W12       30.05R

FORT PECK REPORTS


CITY           SKY/WX    TMP DP  RH WIND       PRES   REMARKS
FORT PECK        N/A     61  48  62 W9          N/A
THE PINES        N/A     64  43  46 SW6         N/A

SOUTHEAST MONTANA


CITY           SKY/WX    TMP DP  RH WIND       PRES   REMARKS
BILLINGS       MOSUNNY   56  38  50 SW14      30.27R
MILES CITY     SUNNY     61  44  53 W12       30.18R
BAKER          MOSUNNY   64  42  44 W14       30.17R
LIVINGSTON     SUNNY     54  40  59 NW12      30.32R

CENTRAL MONTANA


CITY           SKY/WX    TMP DP  RH WIND       PRES   REMARKS
HAVRE          MOSUNNY   60  47  61 SW15      30.16R
LEWISTOWN      SUNNY     58  42  55 SW3       30.26S
GREAT FALLS    SUNNY     61  40  45 SW13      30.23R
CUT BANK       SUNNY     60  43  53 W10       30.20S
HELENA         SUNNY     55  41  59 E3        30.30R
BUTTE          SUNNY     41  37  86 S3        30.39R
BOZEMAN        SUNNY     50  40  68 S5        30.35R

WESTERN MONTANA


CITY           SKY/WX    TMP DP  RH WIND       PRES   REMARKS
MISSOULA       SUNNY     51  44  77 CALM      30.34R
KALISPELL      NOT AVBL

NORTH DAKOTA


CITY           SKY/WX    TMP DP  RH WIND       PRES   REMARKS
WILLISTON      PTSUNNY   61  51  70 W17       30.02R
DICKINSON      PTSUNNY   61  46  57 W13       30.08R
MINOT          MOSUNNY   66  51  58 W21G28    29.90R
BISMARCK       SUNNY     68  48  48 W20G26    30.01R

SOUTHERN SASKATCHEWAN


CITY           SKY/WX    TMP DP  RH WIND       PRES   REMARKS
REGINA         MOSUNNY   61  54  77 W14       29.94R
MOOSE JAW      MOSUNNY   63  54  72 W17       29.97R
ESTEVAN        PTSUNNY   63  54  72 W22G28    29.93R
SWIFT CURRENT  SUNNY     59  50  72 W9        30.06R




USA.gov is the U.S. government's official web portal to all federal, state and local government web resources and services.